Weather History for Cincinnati, OH

Change the Weather History Date:

Saturday, December 28, 2013

  Actual Average Record
Temperature  
Mean Temperature 40 °F -  
Max Temperature 52 °F 41 °F 68 °F (1984)
Min Temperature 28 °F 25 °F 4 °F (1950)
Degree Days  
Heating Degree Days 25    
Moisture  
Dew Point 29 °F    
Average Humidity 69    
Maximum Humidity 96    
Minimum Humidity 45    
Precipitation  
Precipitation 0.00 in - - ()
Sea Level Pressure  
Sea Level Pressure 30.23 in    
Wind  
Wind Speed 3 mph (SSW)    
Max Wind Speed 12 mph    
Max Gust Speed -    
Visibility 10 miles    
Events      
Averages and records for this station are not official NWS values.
T = Trace of Precipitation, MM = Missing Value Source: NWS Daily Summary

Daily Weather History Graph

Daily Weather History Graph

Search for Another Location

Airport:

Trip Planner

Search our weather history database for the weather conditions in past years. The results will help you decide how hot, cold, wet, or windy it might be!

Date:

Astronomy

Dec. 28, 2013 Rise Set
Actual Time 7:56 AM EST 5:22 PM EST
Civil Twilight 7:26 AM EST 5:52 PM EST
Nautical Twilight 6:52 AM EST 6:26 PM EST
Astronomical Twilight 6:19 AM EST 6:58 PM EST
Moon 3:33 AM EST 2:12 PM EST
Length of Visible Light 10h 26m
Length of Day
9h 26m
Waning Crescent, 19% of the Moon is Illuminated
Dec 28
Waning Crescent
Jan 1
New
Jan 7
First Quarter
Jan 15
Full
Jan 24
Last Quarter

Hourly Weather History & Observations

Time (EST) Temp. Windchill Dew Point Humidity Pressure Visibility Wind Dir Wind Speed Gust Speed Precip Events Conditions
12:53 AM 32.0 °F - 27.0 °F 82% 30.32 in 10.0 mi Calm Calm - N/A   Clear
1:53 AM 35.1 °F 31.0 °F 26.1 °F 70% 30.30 in 10.0 mi SSW 4.6 mph - N/A   Clear
2:53 AM 34.0 °F 28.0 °F 27.0 °F 75% 30.30 in 10.0 mi SSW 6.9 mph - N/A   Clear
3:53 AM 33.1 °F - 26.1 °F 75% 30.30 in 10.0 mi Calm Calm - N/A   Clear
4:53 AM 30.9 °F - 25.0 °F 79% 30.30 in 10.0 mi Calm Calm - N/A   Clear
5:53 AM 28.9 °F - 25.0 °F 85% 30.31 in 10.0 mi Calm Calm - N/A   Clear
6:53 AM 28.9 °F - 26.1 °F 89% 30.31 in 10.0 mi Calm Calm - N/A   Clear
7:53 AM 30.9 °F - 28.0 °F 89% 30.32 in 10.0 mi Calm Calm - N/A   Clear
8:53 AM 30.0 °F 26.5 °F 28.9 °F 96% 30.32 in 10.0 mi SW 3.5 mph - N/A   Clear
9:53 AM 36.0 °F - 30.0 °F 79% 30.31 in 10.0 mi Calm Calm - N/A   Clear
10:53 AM 43.0 °F 39.5 °F 30.0 °F 60% 30.29 in 10.0 mi South 5.8 mph - N/A   Clear
11:53 AM 48.9 °F - 30.9 °F 50% 30.28 in 10.0 mi South 9.2 mph - N/A   Clear
12:53 PM 51.1 °F - 30.9 °F 46% 30.22 in 10.0 mi SSW 10.4 mph - N/A   Clear
1:53 PM 52.0 °F - 30.9 °F 45% 30.22 in 10.0 mi SSW 11.5 mph - N/A   Clear
2:53 PM 51.1 °F - 32.0 °F 48% 30.19 in 10.0 mi SSW 10.4 mph - N/A   Clear
3:53 PM 48.9 °F - 30.9 °F 50% 30.18 in 10.0 mi South 11.5 mph - N/A   Clear
4:53 PM 46.0 °F 41.9 °F 32.0 °F 58% 30.18 in 10.0 mi SSW 8.1 mph - N/A   Clear
5:53 PM 44.1 °F 41.5 °F 32.0 °F 63% 30.17 in 10.0 mi South 4.6 mph - N/A   Clear
6:53 PM 41.0 °F - 30.9 °F 67% 30.18 in 10.0 mi Calm Calm - N/A   Clear
7:53 PM 41.0 °F - 30.9 °F 67% 30.15 in 10.0 mi Calm Calm - N/A   Clear
8:53 PM 39.9 °F 37.8 °F 32.0 °F 73% 30.13 in 10.0 mi South 3.5 mph - N/A   Clear
9:53 PM 39.9 °F - 32.0 °F 73% 30.09 in 10.0 mi Calm Calm - N/A   Clear
10:53 PM 39.9 °F - 30.9 °F 70% 30.06 in 10.0 mi Calm Calm - N/A   Clear
11:53 PM 39.9 °F 36.7 °F 32.0 °F 73% 30.06 in 10.0 mi SW 4.6 mph - N/A   Scattered Clouds